AAL1240 KLAX-KPHL

Flight info

Callsign AAL1240
Flight time N/A
Altitude 33000
Route OSHNN1 BEALE J146 HBU DANDD KAWWA Q136 DIYAP EDENS/N0451F350 TRICH CADIZ WHETT FWA J64 LEPEW JST BOJID4
Aircraft A21N/M-SDE3FGHIRWY/LB1

Departure

Time 2026-04-20 19:12
Airport Los Angeles International Airport (KLAX)

Arrival

Time N/A
Airport Philadelphia International Airport (KPHL)
Time Latitude Longitude Altitude Speed Heading
2026-04-20 18:42 33.93948 -118.40720 131 ft 0 kts 33°
2026-04-20 18:59 33.93944 -118.40723 131 ft 2 kts 33°
2026-04-20 18:59 33.93932 -118.40733 131 ft 0 kts 32°
2026-04-20 19:01 33.93922 -118.40740 131 ft 2 kts 32°
2026-04-20 19:01 33.93910 -118.40750 131 ft 2 kts 33°
2026-04-20 19:01 33.93898 -118.40761 132 ft 2 kts 48°
2026-04-20 19:01 33.93888 -118.40775 132 ft 2 kts 58°
2026-04-20 19:02 33.93882 -118.40791 133 ft 2 kts 70°
2026-04-20 19:02 33.93878 -118.40808 133 ft 1 kts 80°
2026-04-20 19:02 33.93877 -118.40815 133 ft 0 kts 83°
2026-04-20 19:05 33.93877 -118.40813 133 ft 1 kts 83°
2026-04-20 19:05 33.93874 -118.40772 133 ft 8 kts 115°
2026-04-20 19:05 33.93844 -118.40730 134 ft 11 kts 133°
2026-04-20 19:05 33.93814 -118.40620 132 ft 17 kts 83°
2026-04-20 19:06 33.93832 -118.40456 129 ft 21 kts 83°
2026-04-20 19:06 33.93850 -118.40268 124 ft 22 kts 84°
2026-04-20 19:06 33.93870 -118.40076 121 ft 23 kts 83°
2026-04-20 19:06 33.93890 -118.39883 119 ft 22 kts 83°
2026-04-20 19:07 33.93908 -118.39694 117 ft 22 kts 83°
2026-04-20 19:07 33.93929 -118.39500 112 ft 23 kts 83°
2026-04-20 19:07 33.93949 -118.39307 110 ft 23 kts 83°
2026-04-20 19:07 33.93969 -118.39113 108 ft 22 kts 83°
2026-04-20 19:08 33.93988 -118.38925 107 ft 22 kts 83°
2026-04-20 19:08 33.94025 -118.38567 105 ft 21 kts 83°
2026-04-20 19:08 33.94043 -118.38393 104 ft 20 kts 83°
2026-04-20 19:09 33.94060 -118.38222 103 ft 20 kts 83°
2026-04-20 19:09 33.94076 -118.38067 102 ft 11 kts 85°
2026-04-20 19:09 33.94071 -118.38025 102 ft 0 kts 117°
2026-04-20 19:10 33.94066 -118.38017 101 ft 4 kts 130°
2026-04-20 19:10 33.94018 -118.37999 101 ft 10 kts 187°
2026-04-20 19:11 33.93980 -118.38061 101 ft 0 kts 264°
2026-04-20 19:11 33.93976 -118.38103 102 ft 26 kts 263°
2026-04-20 19:11 33.93923 -118.38626 105 ft 96 kts 263°
2026-04-20 19:12 33.93815 -118.39658 115 ft 153 kts 263°
2026-04-20 19:12 33.93664 -118.41111 218 ft 190 kts 262°
2026-04-20 19:12 33.93502 -118.42715 710 ft 196 kts 262°
2026-04-20 19:12 33.93335 -118.44363 1439 ft 197 kts 262°
2026-04-20 19:13 33.93026 -118.45937 2108 ft 197 kts 245°
2026-04-20 19:13 33.92257 -118.47356 2470 ft 211 kts 231°
2026-04-20 19:13 33.91295 -118.48796 2783 ft 230 kts 230°
2026-04-20 19:13 33.90208 -118.50358 3149 ft 248 kts 229°
2026-04-20 19:14 33.89057 -118.51950 3777 ft 254 kts 229°
2026-04-20 19:14 33.87883 -118.53588 4264 ft 266 kts 230°
2026-04-20 19:14 33.86569 -118.55209 4852 ft 272 kts 213°
2026-04-20 19:14 33.84795 -118.55983 5493 ft 273 kts 184°
2026-04-20 19:15 33.82915 -118.55701 6123 ft 274 kts 166°
2026-04-20 19:15 33.81030 -118.55150 6697 ft 278 kts 166°
2026-04-20 19:15 33.79139 -118.54620 7242 ft 281 kts 167°
2026-04-20 19:15 33.77210 -118.54085 7767 ft 284 kts 168°
2026-04-20 19:16 33.75265 -118.53561 8281 ft 287 kts 168°
2026-04-20 19:16 33.73313 -118.53040 8760 ft 289 kts 168°
2026-04-20 19:16 33.71375 -118.52446 9189 ft 292 kts 158°
2026-04-20 19:16 33.69711 -118.51066 9566 ft 295 kts 131°
2026-04-20 19:17 33.68695 -118.48905 9964 ft 297 kts 110°
2026-04-20 19:17 33.68041 -118.46570 10266 ft 304 kts 109°
2026-04-20 19:17 33.67346 -118.44119 10451 ft 314 kts 110°
2026-04-20 19:17 33.66615 -118.41599 10629 ft 324 kts 110°
2026-04-20 19:18 33.65861 -118.39033 10797 ft 334 kts 110°
2026-04-20 19:18 33.65104 -118.36346 10960 ft 343 kts 106°
2026-04-20 19:18 33.64607 -118.33539 11115 ft 352 kts 98°
2026-04-20 19:18 33.64433 -118.30563 11268 ft 361 kts 91°
2026-04-20 19:19 33.64424 -118.27527 11411 ft 369 kts 90°
2026-04-20 19:19 33.64445 -118.24397 11549 ft 377 kts 90°
2026-04-20 19:19 33.64526 -118.21267 11671 ft 385 kts 83°
2026-04-20 19:19 33.65340 -118.18189 11779 ft 393 kts 62°
2026-04-20 19:20 33.67046 -118.15579 11954 ft 398 kts 42°
2026-04-20 19:20 33.69239 -118.13573 12229 ft 399 kts 36°
2026-04-20 19:20 33.71504 -118.11594 12469 ft 400 kts 36°
2026-04-20 19:20 33.73739 -118.09631 12679 ft 402 kts 37°
2026-04-20 19:21 33.76026 -118.07602 12881 ft 405 kts 37°
2026-04-20 19:21 33.78282 -118.05589 13092 ft 406 kts 37°
2026-04-20 19:21 33.80537 -118.03567 13291 ft 407 kts 37°
2026-04-20 19:21 33.82835 -118.01501 13479 ft 409 kts 37°
2026-04-20 19:22 33.85090 -117.99468 13657 ft 409 kts 37°
2026-04-20 19:22 33.87382 -117.97408 13821 ft 412 kts 37°
2026-04-20 19:22 33.89692 -117.95332 13996 ft 413 kts 37°
2026-04-20 19:22 33.91974 -117.93271 14163 ft 413 kts 37°
2026-04-20 19:23 33.94256 -117.91187 14307 ft 415 kts 37°
2026-04-20 19:23 33.96579 -117.89063 14449 ft 414 kts 37°
2026-04-20 19:23 33.98863 -117.86970 14563 ft 417 kts 37°
2026-04-20 19:23 34.01183 -117.84840 14688 ft 417 kts 37°
2026-04-20 19:24 34.03482 -117.82731 14803 ft 419 kts 37°
2026-04-20 19:24 34.05815 -117.80589 14920 ft 419 kts 38°
2026-04-20 19:24 34.08066 -117.78313 15029 ft 419 kts 42°
2026-04-20 19:24 34.10143 -117.75845 15122 ft 420 kts 47°
2026-04-20 19:25 34.11934 -117.73370 15230 ft 421 kts 50°
2026-04-20 19:25 34.13795 -117.70628 15327 ft 421 kts 51°
2026-04-20 19:25 34.15633 -117.67883 15412 ft 422 kts 51°
2026-04-20 19:25 34.17475 -117.65123 15499 ft 423 kts 51°
2026-04-20 19:26 34.19312 -117.62379 15604 ft 422 kts 51°
2026-04-20 19:26 34.21177 -117.59600 15663 ft 423 kts 51°
2026-04-20 19:26 34.23016 -117.56867 15745 ft 424 kts 51°
2026-04-20 19:26 34.24867 -117.54112 15811 ft 423 kts 51°
2026-04-20 19:27 34.26720 -117.51347 15844 ft 425 kts 51°
2026-04-20 19:27 34.28587 -117.48564 15931 ft 425 kts 51°
2026-04-20 19:27 34.30454 -117.45781 16010 ft 426 kts 51°
2026-04-20 19:27 34.32320 -117.42998 16085 ft 427 kts 51°
2026-04-20 19:28 34.34179 -117.40219 16163 ft 427 kts 51°
2026-04-20 19:28 34.36058 -117.37415 16239 ft 428 kts 51°
2026-04-20 19:28 34.37930 -117.34609 16312 ft 428 kts 51°
2026-04-20 19:28 34.39807 -117.31803 16374 ft 429 kts 51°
2026-04-20 19:29 34.41700 -117.28973 16446 ft 430 kts 51°
2026-04-20 19:29 34.43569 -117.26169 16512 ft 430 kts 51°
2026-04-20 19:29 34.45435 -117.23364 16547 ft 430 kts 51°
2026-04-20 19:29 34.47329 -117.20515 16597 ft 432 kts 51°
2026-04-20 19:30 34.49205 -117.17687 16664 ft 432 kts 51°
2026-04-20 19:30 34.51076 -117.14862 16728 ft 432 kts 52°
2026-04-20 19:30 34.52949 -117.12031 16769 ft 433 kts 52°
2026-04-20 19:30 34.54855 -117.09166 16817 ft 432 kts 51°
2026-04-20 19:31 34.56751 -117.06390 16845 ft 433 kts 51°
2026-04-20 19:31 34.58691 -117.03573 16895 ft 434 kts 51°
2026-04-20 19:31 34.60643 -117.00740 16958 ft 434 kts 51°
2026-04-20 19:31 34.62579 -116.97926 17009 ft 434 kts 51°
2026-04-20 19:32 34.64497 -116.95129 17045 ft 434 kts 51°
2026-04-20 19:32 34.66427 -116.92313 17081 ft 435 kts 51°
2026-04-20 19:32 34.68361 -116.89489 17128 ft 435 kts 51°
2026-04-20 19:32 34.70296 -116.86658 17171 ft 435 kts 51°
2026-04-20 19:33 34.72236 -116.83820 17199 ft 436 kts 50°
2026-04-20 19:33 34.74147 -116.81029 17229 ft 435 kts 51°
2026-04-20 19:33 34.76078 -116.78203 17250 ft 435 kts 51°
2026-04-20 19:33 34.78008 -116.75365 17273 ft 436 kts 51°
2026-04-20 19:34 34.79955 -116.72501 17292 ft 435 kts 51°
2026-04-20 19:34 34.81874 -116.69678 17304 ft 436 kts 51°
2026-04-20 19:34 34.83804 -116.66842 17329 ft 437 kts 51°
2026-04-20 19:34 34.85767 -116.64015 17360 ft 438 kts 49°
2026-04-20 19:35 34.87803 -116.61266 17391 ft 438 kts 47°
2026-04-20 19:35 34.89854 -116.58536 17418 ft 438 kts 47°
2026-04-20 19:35 34.91923 -116.55785 17437 ft 438 kts 47°
2026-04-20 19:35 34.93980 -116.53046 17463 ft 439 kts 47°
2026-04-20 19:36 34.96029 -116.50308 17493 ft 438 kts 47°
2026-04-20 19:36 34.98082 -116.47563 17500 ft 439 kts 47°
2026-04-20 19:36 35.00119 -116.44835 17524 ft 440 kts 47°
2026-04-20 19:36 35.02180 -116.42072 17562 ft 439 kts 48°
2026-04-20 19:37 35.04247 -116.39298 17587 ft 440 kts 48°
2026-04-20 19:37 35.06298 -116.36541 17610 ft 440 kts 48°
2026-04-20 19:37 35.08353 -116.33773 17641 ft 440 kts 49°
2026-04-20 19:37 35.10403 -116.31010 17669 ft 441 kts 49°
2026-04-20 19:38 35.12484 -116.28204 17699 ft 441 kts 49°
2026-04-20 19:38 35.14514 -116.25468 17719 ft 439 kts 48°
2026-04-20 19:38 35.16563 -116.22705 17708 ft 440 kts 48°
2026-04-20 19:38 35.18616 -116.19937 17711 ft 441 kts 48°
2026-04-20 19:39 35.20681 -116.17148 17738 ft 441 kts 48°
2026-04-20 19:39 35.22737 -116.14369 17760 ft 441 kts 48°
2026-04-20 19:39 35.24803 -116.11576 17776 ft 441 kts 48°
2026-04-20 19:39 35.26851 -116.08808 17796 ft 441 kts 48°
2026-04-20 19:40 35.28905 -116.06028 17814 ft 441 kts 48°
2026-04-20 19:40 35.30954 -116.03246 17819 ft 441 kts 49°
2026-04-20 19:40 35.33013 -116.00442 17820 ft 441 kts 48°
2026-04-20 19:40 35.35068 -115.97648 17834 ft 441 kts 48°
2026-04-20 19:41 35.37129 -115.94848 17859 ft 442 kts 48°
2026-04-20 19:41 35.39188 -115.92048 17889 ft 442 kts 48°
2026-04-20 19:41 35.41223 -115.89278 17920 ft 442 kts 48°
2026-04-20 19:41 35.43270 -115.86486 17944 ft 442 kts 48°
2026-04-20 19:42 35.45343 -115.83656 17967 ft 443 kts 48°
2026-04-20 19:42 35.47398 -115.80849 17996 ft 442 kts 48°
2026-04-20 19:42 35.49424 -115.78078 18008 ft 442 kts 48°
2026-04-20 19:42 35.51479 -115.75270 18016 ft 443 kts 49°
2026-04-20 19:43 35.53532 -115.72456 18034 ft 442 kts 49°
2026-04-20 19:43 35.55595 -115.69621 18049 ft 443 kts 49°
2026-04-20 19:43 35.57631 -115.66824 18063 ft 443 kts 49°
2026-04-20 19:43 35.59690 -115.63992 18076 ft 442 kts 49°
2026-04-20 19:44 35.61734 -115.61186 18085 ft 443 kts 48°
2026-04-20 19:44 35.63789 -115.58366 18107 ft 443 kts 48°
2026-04-20 19:44 35.65826 -115.55566 18120 ft 443 kts 48°
2026-04-20 19:44 35.67893 -115.52721 18138 ft 443 kts 49°
2026-04-20 19:45 35.69928 -115.49914 18161 ft 442 kts 49°
2026-04-20 19:45 35.71984 -115.47075 18156 ft 443 kts 49°
2026-04-20 19:45 35.74014 -115.44271 18133 ft 442 kts 49°
2026-04-20 19:45 35.76084 -115.41413 18123 ft 444 kts 48°
2026-04-20 19:46 35.78131 -115.38584 18141 ft 444 kts 48°
2026-04-20 19:46 35.80162 -115.35774 18156 ft 444 kts 48°
2026-04-20 19:46 35.82220 -115.32925 18164 ft 444 kts 49°
2026-04-20 19:46 35.84289 -115.30061 18172 ft 444 kts 49°
2026-04-20 19:47 35.86337 -115.27222 18176 ft 444 kts 49°
2026-04-20 19:47 35.88372 -115.24404 18176 ft 444 kts 49°
2026-04-20 19:47 35.90446 -115.21529 18190 ft 445 kts 49°
2026-04-20 19:47 35.92480 -115.18703 18207 ft 444 kts 49°
2026-04-20 19:48 35.94525 -115.15858 18208 ft 444 kts 49°
2026-04-20 19:48 35.96595 -115.12974 18214 ft 445 kts 49°
2026-04-20 19:48 35.98616 -115.10153 18223 ft 444 kts 49°
2026-04-20 19:48 36.00668 -115.07291 18225 ft 444 kts 49°
2026-04-20 19:49 36.02723 -115.04421 18229 ft 445 kts 49°
2026-04-20 19:49 36.04776 -115.01543 18243 ft 444 kts 49°
2026-04-20 19:49 36.06810 -114.98687 18247 ft 445 kts 49°
2026-04-20 19:49 36.08844 -114.95830 18257 ft 444 kts 49°
2026-04-20 19:50 36.10889 -114.92959 18257 ft 445 kts 49°
2026-04-20 19:50 36.12946 -114.90073 18267 ft 445 kts 49°
2026-04-20 19:50 36.14986 -114.87209 18282 ft 445 kts 49°
2026-04-20 19:50 36.16927 -114.84206 18280 ft 445 kts 55°
2026-04-20 19:51 36.18549 -114.80981 18288 ft 444 kts 62°
2026-04-20 19:51 36.19852 -114.77539 18297 ft 444 kts 68°
2026-04-20 19:51 36.20971 -114.73985 18312 ft 444 kts 69°
2026-04-20 19:51 36.22047 -114.70428 18315 ft 443 kts 70°
2026-04-20 19:52 36.23124 -114.66840 18311 ft 444 kts 70°
2026-04-20 19:52 36.24207 -114.63238 18324 ft 445 kts 70°
2026-04-20 19:52 36.25280 -114.59687 18341 ft 445 kts 70°
2026-04-20 19:52 36.26368 -114.56095 18351 ft 444 kts 70°
2026-04-20 19:53 36.27446 -114.52535 18350 ft 445 kts 70°
2026-04-20 19:53 36.28528 -114.48963 18515 ft 437 kts 70°
2026-04-20 19:53 36.29578 -114.45486 18801 ft 426 kts 70°
2026-04-20 19:53 36.30597 -114.42113 18955 ft 419 kts 70°
2026-04-20 19:54 36.31625 -114.38710 19013 ft 418 kts 70°
2026-04-20 19:54 36.32594 -114.35247 23710 ft 429 kts 72°
2026-04-20 19:54 36.33599 -114.31680 23685 ft 438 kts 70°
2026-04-20 19:54 36.34666 -114.28200 23594 ft 439 kts 71°
2026-04-20 19:55 36.35751 -114.24670 23517 ft 439 kts 70°
2026-04-20 19:55 36.36849 -114.21137 23682 ft 430 kts 70°
2026-04-20 19:55 36.37892 -114.17754 23904 ft 420 kts 70°
2026-04-20 19:55 36.38906 -114.14430 24083 ft 410 kts 70°
2026-04-20 19:56 36.39581 -114.12208 24057 ft 409 kts 70°
2026-04-20 19:56 36.40905 -114.07806 23921 ft 411 kts 70°
2026-04-20 19:56 36.41899 -114.04487 23814 ft 412 kts 70°
2026-04-20 19:56 36.42894 -114.01157 23716 ft 413 kts 70°
2026-04-20 19:57 36.43880 -113.97852 23786 ft 406 kts 70°
2026-04-20 19:57 36.44913 -113.94385 23926 ft 398 kts 70°
2026-04-20 19:57 36.50242 -113.76429 23881 ft 396 kts 70°
2026-04-20 19:57 36.51158 -113.73180 31277 ft 470 kts 73°
2026-04-20 19:58 36.52196 -113.69423 31368 ft 459 kts 71°
2026-04-20 19:58 36.53297 -113.65739 31130 ft 456 kts 70°
2026-04-20 19:58 36.54398 -113.62053 30996 ft 449 kts 71°
2026-04-20 19:59 36.56522 -113.54904 30719 ft 440 kts 70°
2026-04-20 19:59 36.57967 -113.50088 30297 ft 441 kts 70°
2026-04-20 19:59 36.62411 -113.35104 29111 ft 443 kts 71°
2026-04-20 19:59 36.63405 -113.31351 29146 ft 456 kts 72°
2026-04-20 20:00 36.64471 -113.27635 28955 ft 455 kts 71°
2026-04-20 20:00 36.65552 -113.23971 28834 ft 452 kts 71°
2026-04-20 20:00 36.66619 -113.20349 28753 ft 448 kts 71°
2026-04-20 20:00 36.67678 -113.16731 28635 ft 445 kts 71°
2026-04-20 20:01 36.68727 -113.13128 28500 ft 444 kts 71°
2026-04-20 20:01 36.69769 -113.09529 28366 ft 442 kts 71°
2026-04-20 20:01 36.70806 -113.05936 28237 ft 440 kts 71°
2026-04-20 20:02 36.72862 -112.98911 28226 ft 427 kts 71°
2026-04-20 20:02 36.73854 -112.95435 28064 ft 428 kts 71°
2026-04-20 20:02 36.74843 -112.91948 27870 ft 430 kts 71°
2026-04-20 20:02 36.75847 -112.88412 27686 ft 432 kts 71°
2026-04-20 20:03 36.76842 -112.84918 27549 ft 432 kts 71°
2026-04-20 20:03 36.77844 -112.81401 27393 ft 433 kts 71°
2026-04-20 20:03 36.78861 -112.77831 27208 ft 435 kts 71°
2026-04-20 20:03 36.79876 -112.74270 27019 ft 437 kts 71°
2026-04-20 20:04 36.80890 -112.70704 26830 ft 439 kts 71°
2026-04-20 20:04 36.81910 -112.67116 26641 ft 441 kts 71°
2026-04-20 20:04 36.82927 -112.63528 26445 ft 444 kts 71°
2026-04-20 20:04 36.83958 -112.59892 26339 ft 442 kts 71°
2026-04-20 20:05 36.84969 -112.56325 26325 ft 438 kts 71°
2026-04-20 20:05 36.85970 -112.52785 26318 ft 433 kts 71°
2026-04-20 20:05 36.86972 -112.49238 26313 ft 428 kts 71°
2026-04-20 20:05 36.87952 -112.45757 26313 ft 423 kts 71°
2026-04-20 20:06 36.88914 -112.42339 26317 ft 419 kts 71°
2026-04-20 20:06 36.89864 -112.38946 26323 ft 415 kts 71°
2026-04-20 20:06 36.90812 -112.35559 26331 ft 413 kts 71°
2026-04-20 20:06 36.91761 -112.32165 26336 ft 408 kts 72°
2026-04-20 20:07 36.92723 -112.28507 26434 ft 446 kts 72°
2026-04-20 20:07 36.93734 -112.24891 26402 ft 442 kts 71°
2026-04-20 20:07 36.94776 -112.21236 26304 ft 442 kts 71°
2026-04-20 20:07 36.95793 -112.17654 26164 ft 442 kts 71°
2026-04-20 20:08 36.96811 -112.14046 26024 ft 443 kts 71°
2026-04-20 20:08 36.97825 -112.10426 25926 ft 442 kts 71°
2026-04-20 20:08 36.98843 -112.06781 25879 ft 439 kts 71°
2026-04-20 20:08 36.99836 -112.03211 25849 ft 435 kts 72°
2026-04-20 20:09 37.00820 -111.99660 25830 ft 431 kts 72°
2026-04-20 20:09 37.01788 -111.96166 25819 ft 427 kts 72°
2026-04-20 20:09 37.02747 -111.92697 25814 ft 423 kts 72°
2026-04-20 20:09 37.03711 -111.89210 25810 ft 418 kts 72°
2026-04-20 20:10 37.04652 -111.85798 25808 ft 414 kts 72°
2026-04-20 20:10 37.05577 -111.82439 25807 ft 410 kts 72°
2026-04-20 20:10 37.06497 -111.79099 25807 ft 406 kts 72°
2026-04-20 20:10 37.07408 -111.75784 25806 ft 401 kts 72°
2026-04-20 20:11 37.08311 -111.72496 25805 ft 398 kts 72°
2026-04-20 20:11 37.09199 -111.69255 25802 ft 394 kts 72°
2026-04-20 20:11 37.10083 -111.66029 25797 ft 390 kts 72°
2026-04-20 20:11 37.10964 -111.62807 25750 ft 388 kts 72°
2026-04-20 20:12 37.11827 -111.59647 25761 ft 383 kts 72°
2026-04-20 20:12 37.12681 -111.56521 25767 ft 379 kts 72°
2026-04-20 20:12 37.13525 -111.53419 25770 ft 374 kts 72°
2026-04-20 20:13 37.15180 -111.47331 25772 ft 366 kts 72°
2026-04-20 20:13 37.16000 -111.44312 25772 ft 364 kts 72°
2026-04-20 20:13 37.16810 -111.41325 25771 ft 362 kts 72°
2026-04-20 20:13 37.17613 -111.38361 25768 ft 361 kts 72°
2026-04-20 20:14 37.18414 -111.35400 25765 ft 359 kts 72°
2026-04-20 20:14 37.19223 -111.32410 25761 ft 358 kts 72°
2026-04-20 20:14 37.20017 -111.29478 25757 ft 356 kts 72°
2026-04-20 20:14 37.20813 -111.26532 25662 ft 357 kts 72°
2026-04-20 20:15 37.21608 -111.23580 25288 ft 364 kts 72°
2026-04-20 20:15 37.22417 -111.20568 24777 ft 373 kts 72°
2026-04-20 20:15 37.23249 -111.17468 24214 ft 382 kts 72°
2026-04-20 20:15 37.24105 -111.14275 23627 ft 392 kts 72°
2026-04-20 20:16 37.24975 -111.11022 23132 ft 405 kts 72°
2026-04-20 20:16 37.25886 -111.07613 22763 ft 420 kts 72°
2026-04-20 20:16 37.26823 -111.04100 22496 ft 428 kts 72°
2026-04-20 20:16 37.27815 -111.00552 22331 ft 433 kts 67°
2026-04-20 20:17 37.29460 -110.97430 22277 ft 431 kts 45°
2026-04-20 20:17 37.31879 -110.95307 22282 ft 429 kts 25°
2026-04-20 20:17 37.34746 -110.94242 22281 ft 426 kts
2026-04-20 20:17 37.37654 -110.94300 22280 ft 423 kts 350°
2026-04-20 20:18 37.40544 -110.95082 22287 ft 421 kts 347°
2026-04-20 20:18 37.43400 -110.95925 22285 ft 420 kts 346°
2026-04-20 20:18 37.46233 -110.96765 22284 ft 419 kts 346°
2026-04-20 20:18 37.49049 -110.97596 22285 ft 417 kts 346°
2026-04-20 20:19 37.51867 -110.98425 22286 ft 416 kts 346°
2026-04-20 20:19 37.54708 -110.99257 22279 ft 414 kts 346°
2026-04-20 20:19 37.57503 -111.00074 22293 ft 412 kts 346°
2026-04-20 20:19 37.60293 -111.00887 22304 ft 411 kts 347°
2026-04-20 20:20 37.63055 -111.01691 22315 ft 409 kts 347°
2026-04-20 20:20 37.65837 -111.02501 22325 ft 408 kts 347°
2026-04-20 20:20 37.68601 -111.03303 22335 ft 406 kts 347°
2026-04-20 20:20 37.71359 -111.04105 22344 ft 405 kts 347°
2026-04-20 20:21 37.74086 -111.04897 22353 ft 404 kts 347°
2026-04-20 20:21 37.76827 -111.05695 22361 ft 403 kts 347°
2026-04-20 20:21 37.79561 -111.06490 22366 ft 402 kts 347°
2026-04-20 20:21 37.82246 -111.07273 22371 ft 401 kts 347°
2026-04-20 20:22 37.84087 -111.07810 22374 ft 400 kts 347°
2026-04-20 20:22 37.87689 -111.08862 22379 ft 399 kts 347°
2026-04-20 20:22 37.90392 -111.09651 22383 ft 398 kts 347°
2026-04-20 20:22 37.93083 -111.10438 22388 ft 397 kts 347°